Regional Weather Roundup
Issued by NWS Wakefield, VA

Home | Current Version | Previous Version | Text Only | Print | Product List | Glossary On
Versions: 1 2 3 4 5 6 7 8 9 10 11 12 13 14 15 16 17 18 19 20 21 22 23 24 25 26 27 28 29 30 31 32 33 34 35 36 37 38 39 40 41 42 43 44 45 46 47 48 49 50
293
ASUS41 KAKQ 141315
RWRAKQ

REGIONAL WEATHER ROUNDUP
NATIONAL WEATHER SERVICE WAKEFIELD VA
800 AM EST SUN FEB 14 2016

Note: "fair" indicates few or no clouds below 12,000 feet with no
significant weather and/or obstructions to visibility. * = Denotes
station may not report precipitation (e.g., rain,snow,etc.),
thunder or fog.

VAZ042-051-052>054-056-141400-
NORTHERN VIRGINIA

CITY           SKY/WX    TMP DP  RH WIND       PRES   REMARKS
WASH NATIONAL  FAIR      14  -2  49 W7        30.59R
DULLES         FAIR      11   0  61 CALM      30.56R
FORT BELVOIR   FAIR       9   3  75 CALM      30.58R
QUANTICO       FAIR      16   0  49 VRB5      30.61R
FREDERICKSBRG* FAIR      10   5  79 CALM      30.59R
STAFFORD*      FAIR       6   3  84 CALM      30.62R
WARRENTON      FAIR      13   7  77 CALM      30.56R
CULPEPER*      FAIR       9   3  76 CALM      30.57S
MANASSAS*      CLEAR     12   3  67 CALM      30.57R
LEESBURG*      FAIR      14   5  67 W7        30.56R
WINCHESTER     FAIR      12   5  73 CALM      30.51R
FRONT ROYAL*   FAIR      12   1  62 S3        30.50S
LURAY*         FAIR      10   1  67 CALM      30.49S
$$

VAZ048-049-060>072-079>083-141400-
CENTRAL AND SOUTH CENTRAL VIRGINIA

CITY           SKY/WX    TMP DP  RH WIND       PRES   REMARKS
RICHMOND       PTSUNNY   14   2  58 N7        30.57R
CHESTERFIELD*  FAIR      14  -8  37 N3        30.57R
PETERSBURG*    FAIR      17  -5  37 N3        30.57S
HANOVER        FAIR      12   2  64 CALM      30.59R
TAPPAHANNOCK*  FAIR      14   2  59 NW3       30.58R
QUINTON*       FAIR      13  -1  54 CALM      30.57R
CHARLOTTSVILLE FAIR      10  -2  58 CALM      30.53R
GORDONSVILLE*  FAIR       9   3  79 CALM      30.54R
ORANGE*        FAIR      10   3  72 CALM      30.56S
LOUISA*          N/A      9   3  78 CALM      30.53R
BUMPASS*       FAIR       9   2  71 CALM      30.55R
FARMVILLE*     FAIR      15   0  51 CALM      30.54R
CREWE*         FAIR      14   1  54 CALM      30.54R
FORT PICKETT*  FAIR      14  -2  49 CALM      30.54R
CHASE CITY*    FAIR      14  -1  50 CALM      30.54R
CLARKSVILLE*   FAIR      18  -2  41 NE3       30.54R
SOUTH HILL*    FAIR      13   2  63 CALM      30.60R
LAWRENCEVILLE* FAIR      14   0  55 CALM      30.56R
EMPORIA*       FAIR      14   5  67 CALM      30.59R
$$

VAZ088>098-141400-
SOUTHEAST VIRGINIA

CITY           SKY/WX    TMP DP  RH WIND       PRES   REMARKS
NORFOLK        FAIR      19   1  45 N12       30.57R WCI   7
VIRGINIA BEACH FAIR      21   1  41 N15G23    30.56R WCI   8
NORFOLK NAVAL  FAIR      18   0  45 N16       30.58R WCI   3
WEST POINT*    FAIR      15   0  52 NW3       30.60R
SALUDA*        FAIR      16   0  48 NW10G16   30.57R WCI   3
NEWPORT NEWS   FAIR      17  -3  41 N13G25    30.57R WCI   4
LANGLEY AFB    FAIR      17  -2  43 NW16      30.56R WCI   2
FORT EUSTIS    FAIR      17   0  47 N14G21    30.56R WCI   3
WILLIAMSBURG*  FAIR      18   3  53 N5        30.58R
HR EXEC AP*    FAIR      18   0  45 N8G20     30.59R
FRANKLIN*      FAIR      15   1  53 N3        30.59S
US460-WAKEFLD  FAIR      16  -1  47 N6        30.57R
$$

VAZ020-022-025-037-045-141400-
WEST CENTRAL AND SOUTHWEST VIRGINIA

CITY           SKY/WX    TMP DP  RH WIND       PRES   REMARKS
STAUNTON*      FAIR      10   3  74 CALM      30.49S
WAYNESBORO*    FAIR       6  -3  67 CALM      30.44S
HOT SPRINGS VA FAIR      -1  -5  81 CALM      30.17R
LYNCHBURG      FAIR      13  -4  46 CALM      30.51R
DANVILLE       FAIR      18  -2  41 N7        30.54R
SOUTH BOSTON*  FAIR      16  -2  45 N3        30.55R
MARTINSVILLE   MOCLDY    13  -2  51 NE3       30.52R
ROANOKE        MOCLDY    12  -3  51 E5        30.50R
BLACKSBURG     FAIR       9   0  66 CALM      30.40S
DUBLIN*        MOCLDY    10   0  63 CALM      30.39R
MARION*        CLOUDY    11   1  62 CALM      30.35R
HILLSVILLE*    CLOUDY     8  -1  64 CALM      30.31R
RICHLANDS*     CLOUDY     9  -3  59 CALM      30.30F
WISE*          CLOUDY    12   0  57 E3        30.28F
ABINGDON*      CLOUDY    16   3  56 E9        30.33F
$$

MDZ021>025-VAZ099-100-141400-
SOUTHERN MARYLAND AND THE DELMARVA PENINSULA

CITY           SKY/WX    TMP DP  RH WIND       PRES   REMARKS
PATUXENT RIVER MOSUNNY   15  -1  49 NW14      30.57R WCI   0
BAY BRIDGE APT   N/A     14  -2  48 NW12G17   30.57R WCI   0
LEONARDTOWN    SUNNY     14   0  52 W5        30.58R
DOVER          SUNNY     13  -1  53 NW10      30.54R WCI   0
GEORGETOWN     MOSUNNY   13  -6  42 NW7G16    30.55R
EASTON         SUNNY     16   1  53 NW13      30.59R WCI   2
CAMBRIDGE      SUNNY     16  -4  41 NW12G21   30.56R WCI   3
SALISBURY      SUNNY     14  -1  51 NW7       30.55R
OCEAN CITY     SUNNY     14  -4  44 N12       30.56R WCI   0
WALLOPS ISLAND FAIR      16  -1  47 NW7       30.56R
ACCOMACK*      FAIR      18   0  45 N16       30.54R WCI   3
$$

NCZ012>017-030>032-141400-
NORTH CENTRAL AND EASTERN NORTH CAROLINA

CITY           SKY/WX    TMP DP  RH WIND       PRES   REMARKS
ROANOKE RAPIDS FAIR      14   9  79 CALM      30.57R
RALEIGH        PTCLDY    17   0  47 NE9       30.54R
ELIZABETH CITY SUNNY     18   2  49 N15G26    30.56R WCI   4
AHOSKIE*       MOSUNNY   15   1  54 N5        30.58R
EDENTON*       SUNNY     19   4  53 N8        30.58R
CURRITUCK*     SUNNY     18   1  48 NW10G16   30.57R WCI   6
KILL DEVIL HLS PTSUNNY   20   6  56 NW6       30.52R
MANTEO         SUNNY     19   8  61 N13G20    30.53R WCI   7
CAPE HATTERAS  SUNNY     24   9  52 N12G20    30.50R WCI  13
TARBORO*       FAIR      18   3  52 N5        30.59R
GOLDSBORO      MOSUNNY   19  -2  38 NE9       30.54R
WASHINGTON     MOSUNNY   18   1  46 N6        30.57R
GREENVILLE     MOSUNNY   19   3  49 N7        30.57R
NEW BERN       MOSUNNY   20   0  41 N14       30.57R WCI   7
WILMINGTON     SUNNY     24   5  44 NE13      30.54R WCI  12
$$

VAZ048-141400-
ELSEWHERE

CITY           SKY/WX    TMP DP  RH WIND       PRES   REMARKS
HARRISBURG PA  PTCLDY    10  -5  50 NW10      30.51R WCI  -4
BALTIMORE      PTCLDY    12  -1  56 W7        30.56R
ANNAPOLIS      SUNNY     14   0  53 W7        30.57R
ANDREWS AFB    FAIR      13  -1  51 NW9       30.54R
PHILADELPHIA   MOSUNNY    9 -12  38 N18       30.55R WCI -10
HENDERSON NC   PTCLDY    16  -1  48 CALM      30.53S
GREENSBORO     MOCLDY    17  -2  43 NE9       30.48R
ROCKY MOUNT    MOSUNNY   17   3  54 NE7       30.57R
$$

VAZ100-141400-
MARINE

STATION/POSITION TIME  TEMP    WIND        PRES    WAVE   SWELL
                       AIR SEA DIR/SP/G            HT/PER HT/PER
                 (UTC) (F)     (DEG/KT/KT) (MB)    (FT/S) (FT/S)
BRANDYWINE LGT   1200   13     340/ 21/ 30 1032.9R
CAPE MAY NJ      1200   15 31  330/ 14/ 23 1033.1R
LEWES DE         1200   15 31  330/ 26/ 32 1033.5R
15NM E FENWICK I 1250   17 43              1033.5R   7/ 6
OCEAN-CITY-INLET 1200   14 33  340/ 13/ 16 1033.1R
WACHAPREAGUE VA  1200   16 30  330/  7/ 12 1034.0R
THOMAS POINT MD  1200   14 34  310/ 13/ 15 1035.2R
GOOSES REEF MD   1200   16 36  310/ 16/ 23 1035.3R   2/ 4
COVE POINT MD    1200   13     330/ 12/ 21 1035.1R
SOLOMONS ISLAND  1200   15 37  290/  9/ 16   N/A
BISHOPS HEAD MD  1200   14 30  320/  7/ 12 1033.6R
PINEY POINT MD   1200          350/ 21/ 26   N/A
POTOMAC MD       1200   16 36  350/ 17/ 21 1033.6R   2/ 3
CAMBRIDGE MD     1200   16 32  310/ 13/ 18 1033.6R
LEWISETTA VA     1200   16 32  360/ 10/ 16 1034.6R
RAPPAHANNOCK LGT 1200          330/ 26/ 32 1033.8R
STINGRAY PT      1200   17 38  330/ 16/ 21 1034.4R   2/ 3
YORK RVR RNG VA  1200   17     350/ 20/ 25 1033.5R
YORKTOWN VA      1200   16 37  340/ 13/ 17 1034.5R
JAMESTOWN VA     1200   14 39  340/  8/ 12   N/A
DOMINION TERM VA 1200   17     360/  4/ 12 1034.6R
KIPTOPEKE VA     1200      35  350/ 21/ 24   N/A
CHES BAY BRIDGE  1200   18 39  310/ 21/ 26 1034.0R
CAPE HENRY VA    1200   18     350/ 24/ 28   N/A
CHESAPEAKE LGHT  1200   19     350/ 23/ 27 1034.0R
WILLOUBY STN VA  1200   17     350/ 18/ 21 1035.1R
1ST LANDING BUOY 1200      39                N/A     3/ 3
OFFSHORE WE BUOY 1221      45                N/A     6/ 6   2/11
64NM E OF VA BCH 1250   23 51  350/ 21/ 27 1032.5R   8/ 8
DUCK PIER NC     1200   20     330/ 20/ 25 1032.8R
44100 DUCK FRF   1224      44                N/A     7/ 7
44056 DUCK FRF   1211      41                N/A     5/ 7
OREGON INLET NC  1200   20 40  320/ 13/ 18 1033.1R
HATTERAS NC      1200   23 39  350/ 25/ 30 1031.9S
DIAMOND SHLS NC  1250   28 72  360/ 23/ 31 1032.3R   6/ 6
CAPE LOOKOUT NC  1200   22     360/ 19/ 25 1032.2R
$$




USA.gov is the U.S. government's official web portal to all federal, state and local government web resources and services.